| time (UTC) | temp F | wind direction | speed MPH | gust MPH | rain 1hr in | rain 24hr in | rain mn in | humidity % | barometer mb |
| 20260504234507 | 77 | 172 | 10.0 | 17.0 | 0.00 | 0.00 | 0.00 | 72 | 1007.9 |
| 20260504234011 | 77 | 186 | 9.0 | 16.0 | 0.00 | 0.00 | 0.00 | 72 | 1007.9 |
| 20260504233507 | 77 | 188 | 9.0 | 19.0 | 0.00 | 0.00 | 0.00 | 71 | 1007.9 |
| 20260504233107 | 77 | 206 | 12.0 | 19.0 | 0.00 | 0.00 | 0.00 | 70 | 1007.9 |
| 20260504232507 | 77 | 172 | 9.0 | 14.0 | 0.00 | 0.00 | 0.00 | 71 | 1007.9 |
| 20260504232007 | 77 | 182 | 8.0 | 14.0 | 0.00 | 0.00 | 0.00 | 71 | 1007.9 |
| 20260504231506 | 77 | 175 | 8.0 | 18.0 | 0.00 | 0.00 | 0.00 | 73 | 1007.8 |
| 20260504231007 | 77 | 207 | 11.0 | 19.0 | 0.00 | 0.00 | 0.00 | 72 | 1007.8 |
| 20260504230506 | 77 | 162 | 10.0 | 19.0 | 0.00 | 0.00 | 0.00 | 70 | 1008.0 |
| 20260504230004 | 77 | 165 | 11.0 | 19.0 | 0.00 | 0.00 | 0.00 | 71 | 1008.1 |
| 20260504225504 | 78 | 177 | 11.0 | 17.0 | 0.00 | 0.00 | 0.00 | 71 | 1008.2 |
| 20260504225003 | 77 | 234 | 9.0 | 13.0 | 0.00 | 0.00 | 0.00 | 71 | 1008.1 |
| 20260504224503 | 77 | 200 | 7.0 | 19.0 | 0.00 | 0.00 | 0.00 | 72 | 1008.2 |
| 20260504224002 | 77 | 217 | 12.0 | 18.0 | 0.00 | 0.00 | 0.00 | 71 | 1008.3 |
| 20260504223502 | 77 | 244 | 9.0 | 19.0 | 0.00 | 0.00 | 0.00 | 71 | 1008.2 |
| 20260504223002 | 77 | 213 | 13.0 | 18.0 | 0.00 | 0.00 | 0.00 | 71 | 1008.2 |
| 20260504222502 | 76 | 203 | 14.0 | 18.0 | 0.00 | 0.00 | 0.00 | 71 | 1008.2 |
| 20260504222000 | 76 | 243 | 11.0 | 20.0 | 0.00 | 0.00 | 0.00 | 71 | 1008.4 |
| 20260504221603 | 77 | 217 | 14.0 | 19.0 | 0.00 | 0.00 | 0.00 | 71 | 1008.6 |
| 20260504221059 | 77 | 191 | 9.0 | 21.0 | 0.00 | 0.00 | 0.00 | 72 | 1008.5 |
| 20260504220559 | 77 | 216 | 9.0 | 20.0 | 0.00 | 0.00 | 0.00 | 71 | 1008.6 |
| 20260504220101 | 77 | 190 | 11.0 | 20.0 | 0.00 | 0.00 | 0.00 | 71 | 1008.8 |
| 20260504215601 | 77 | 179 | 10.0 | 20.0 | 0.00 | 0.00 | 0.00 | 70 | 1008.8 |
| 20260504215056 | 77 | 199 | 11.0 | 21.0 | 0.00 | 0.00 | 0.00 | 70 | 1008.8 |
| 20260504214605 | 78 | 168 | 10.0 | 18.0 | 0.00 | 0.00 | 0.00 | 69 | 1008.9 |
| 20260504214056 | 77 | 206 | 10.0 | 17.0 | 0.00 | 0.00 | 0.00 | 70 | 1008.8 |
| 20260504213555 | 77 | 188 | 10.0 | 15.0 | 0.00 | 0.00 | 0.00 | 71 | 1009.0 |
| 20260504213056 | 77 | 193 | 10.0 | 23.0 | 0.00 | 0.00 | 0.00 | 71 | 1009.1 |
| 20260504212555 | 77 | 201 | 11.0 | 23.0 | 0.00 | 0.00 | 0.00 | 71 | 1009.2 |
| 20260504212058 | 77 | 242 | 11.0 | 20.0 | 0.00 | 0.00 | 0.00 | 71 | 1009.1 |
| 20260504211554 | 77 | 186 | 10.0 | 22.0 | 0.00 | 0.00 | 0.00 | 70 | 1009.2 |
| 20260504211053 | 77 | 243 | 14.0 | 22.0 | 0.00 | 0.00 | 0.00 | 69 | 1009.3 |
| 20260504210553 | 77 | 179 | 8.0 | 22.0 | 0.00 | 0.00 | 0.00 | 71 | 1009.4 |
| 20260504205549 | 77 | 208 | 13.0 | 19.0 | 0.00 | 0.00 | 0.00 | 70 | 1009.6 |
| 20260504205051 | 77 | 215 | 11.0 | 20.0 | 0.00 | 0.00 | 0.00 | 71 | 1009.7 |
| 20260504204606 | 76 | 182 | 12.0 | 20.0 | 0.00 | 0.00 | 0.00 | 72 | 1009.7 |
| 20260504204046 | 76 | 184 | 12.0 | 20.0 | 0.00 | 0.00 | 0.00 | 72 | 1009.7 |
| 20260504203546 | 76 | 223 | 11.0 | 21.0 | 0.00 | 0.00 | 0.00 | 72 | 1009.8 |
| 20260504203059 | 76 | 236 | 9.0 | 21.0 | 0.00 | 0.00 | 0.00 | 73 | 1009.9 |
| 20260504202543 | 76 | 191 | 14.0 | 21.0 | 0.00 | 0.00 | 0.00 | 71 | 1010.0 |
| 20260504202043 | 76 | 182 | 8.0 | 16.0 | 0.00 | 0.00 | 0.00 | 72 | 1010.1 |
| 20260504201541 | 75 | 258 | 8.0 | 17.0 | 0.00 | 0.00 | 0.00 | 74 | 1010.2 |
| 20260504201040 | 74 | 207 | 10.0 | 18.0 | 0.00 | 0.00 | 0.00 | 76 | 1010.2 |
| 20260504200540 | 74 | 240 | 13.0 | 21.0 | 0.00 | 0.00 | 0.00 | 74 | 1010.5 |
| 20260504200039 | 74 | 240 | 13.0 | 21.0 | 0.00 | 0.00 | 0.00 | 76 | 1010.5 |
| 20260504195537 | 74 | 227 | 9.0 | 18.0 | 0.00 | 0.00 | 0.00 | 77 | 1010.6 |
| 20260504195038 | 74 | 209 | 8.0 | 21.0 | 0.00 | 0.00 | 0.00 | 75 | 1010.7 |
| 20260504194537 | 73 | 246 | 12.0 | 21.0 | 0.00 | 0.00 | 0.00 | 75 | 1010.8 |
| 20260504194036 | 73 | 213 | 12.0 | 19.0 | 0.00 | 0.00 | 0.00 | 75 | 1010.8 |
| 20260504193538 | 73 | 229 | 14.0 | 19.0 | 0.00 | 0.00 | 0.00 | 76 | 1011.0 |
| 20260504193035 | 73 | 219 | 12.0 | 20.0 | 0.00 | 0.00 | 0.00 | 76 | 1011.1 |
| 20260504192535 | 73 | 239 | 14.0 | 19.0 | 0.00 | 0.00 | 0.00 | 76 | 1011.0 |
| 20260504192035 | 73 | 195 | 11.0 | 22.0 | 0.00 | 0.00 | 0.00 | 76 | 1011.0 |
| 20260504191535 | 74 | 211 | 10.0 | 22.0 | 0.00 | 0.00 | 0.00 | 75 | 1011.0 |
| 20260504191035 | 74 | 196 | 11.0 | 18.0 | 0.00 | 0.00 | 0.00 | 75 | 1011.0 |
| 20260504190535 | 74 | 186 | 12.0 | 20.0 | 0.00 | 0.00 | 0.00 | 74 | 1011.0 |
| 20260504190034 | 74 | 233 | 12.0 | 17.0 | 0.00 | 0.00 | 0.00 | 74 | 1011.0 |
| 20260504185533 | 74 | 242 | 6.0 | 13.0 | 0.00 | 0.00 | 0.00 | 76 | 1011.1 |
| 20260504185035 | 73 | 223 | 7.0 | 16.0 | 0.00 | 0.00 | 0.00 | 78 | 1011.0 |
| 20260504184531 | 73 | 200 | 12.0 | 20.0 | 0.00 | 0.00 | 0.00 | 78 | 1011.2 |
| 20260504184030 | 73 | 207 | 15.0 | 20.0 | 0.00 | 0.00 | 0.00 | 77 | 1011.2 |
| 20260504183530 | 72 | 185 | 10.0 | 17.0 | 0.00 | 0.00 | 0.00 | 77 | 1011.3 |
| 20260504183030 | 72 | 165 | 10.0 | 18.0 | 0.00 | 0.00 | 0.00 | 78 | 1011.3 |
| 20260504182529 | 72 | 216 | 12.0 | 19.0 | 0.00 | 0.00 | 0.00 | 77 | 1011.3 |
| 20260504182029 | 73 | 222 | 13.0 | 19.0 | 0.00 | 0.00 | 0.00 | 76 | 1011.4 |
| 20260504181528 | 73 | 178 | 8.0 | 22.0 | 0.00 | 0.00 | 0.00 | 78 | 1011.3 |
| 20260504181028 | 73 | 190 | 12.0 | 22.0 | 0.00 | 0.00 | 0.00 | 76 | 1011.5 |
| 20260504180526 | 72 | 174 | 7.0 | 18.0 | 0.00 | 0.00 | 0.00 | 80 | 1011.5 |
| 20260504180024 | 72 | 217 | 11.0 | 19.0 | 0.00 | 0.00 | 0.00 | 78 | 1011.9 |
| 20260504175524 | 72 | 197 | 12.0 | 20.0 | 0.00 | 0.00 | 0.00 | 78 | 1011.8 |
| 20260504175023 | 72 | 241 | 13.0 | 20.0 | 0.00 | 0.00 | 0.00 | 78 | 1011.7 |
| 20260504174522 | 71 | 227 | 11.0 | 18.0 | 0.00 | 0.00 | 0.00 | 81 | 1011.8 |
| 20260504174021 | 70 | 194 | 11.0 | 20.0 | 0.00 | 0.00 | 0.00 | 81 | 1012.1 |
| 20260504173520 | 69 | 202 | 12.0 | 20.0 | 0.00 | 0.00 | 0.00 | 81 | 1012.1 |
| 20260504173020 | 69 | 219 | 10.0 | 23.0 | 0.00 | 0.00 | 0.00 | 81 | 1012.0 |
| 20260504172522 | 69 | 227 | 15.0 | 23.0 | 0.00 | 0.00 | 0.00 | 81 | 1012.0 |
| 20260504172019 | 69 | 214 | 12.0 | 21.0 | 0.00 | 0.00 | 0.00 | 82 | 1012.0 |
| 20260504171518 | 69 | 216 | 15.0 | 23.0 | 0.00 | 0.00 | 0.00 | 81 | 1012.2 |
| 20260504171025 | 70 | 225 | 12.0 | 19.0 | 0.00 | 0.00 | 0.00 | 82 | 1012.3 |
| 20260504170517 | 69 | 216 | 12.0 | 20.0 | 0.00 | 0.00 | 0.00 | 83 | 1012.4 |
| 20260504151100 | 63 | 209 | 10.0 | 20.0 | 0.00 | 0.00 | 0.00 | 92 | 1012.8 |
| 20260504150600 | 63 | 205 | 8.0 | 17.0 | 0.00 | 0.00 | 0.00 | 92 | 1012.9 |
| 20260504141057 | 61 | 183 | 10.0 | 18.0 | 0.00 | 0.00 | 0.00 | 94 | 1013.0 |
| 20260504140558 | 61 | 219 | 10.0 | 17.0 | 0.00 | 0.00 | 0.00 | 94 | 1013.0 |
| 20260504130517 | 60 | 196 | 11.0 | 24.0 | 0.00 | 0.00 | 0.00 | 95 | 1012.9 |
| 20260504110505 | 59 | 227 | 11.0 | 20.0 | 0.00 | 0.00 | 0.00 | 92 | 1012.5 |
| 20260504100558 | 58 | 205 | 12.0 | 19.0 | 0.00 | 0.00 | 0.00 | 90 | 1012.9 |
| 20260504081544 | 59 | 180 | 10.0 | 19.0 | 0.00 | 0.00 | 0.00 | 87 | 1013.7 |
| 20260504081043 | 59 | 221 | 9.0 | 18.0 | 0.00 | 0.00 | 0.00 | 87 | 1014.0 |
| 20260504080546 | 59 | 174 | 11.0 | 18.0 | 0.00 | 0.00 | 0.00 | 87 | 1013.9 |
| 20260504050511 | 63 | 165 | 10.0 | 19.0 | 0.00 | 0.00 | 0.00 | 72 | 1015.7 |
| 20260504050008 | 64 | 186 | 11.0 | 19.0 | 0.00 | 0.00 | 0.00 | 72 | 1015.8 |
| 20260504045506 | 64 | 153 | 12.0 | 20.0 | 0.00 | 0.00 | 0.00 | 71 | 1015.9 |
| 20260504045006 | 64 | 167 | 9.0 | 20.0 | 0.00 | 0.00 | 0.00 | 70 | 1016.0 |
| 20260504044512 | 64 | 200 | 9.0 | 17.0 | 0.00 | 0.00 | 0.00 | 70 | 1016.0 |
| 20260504044006 | 64 | 187 | 8.0 | 17.0 | 0.00 | 0.00 | 0.00 | 69 | 1015.9 |
| 20260504043506 | 64 | 163 | 8.0 | 17.0 | 0.00 | 0.00 | 0.00 | 69 | 1015.8 |
| 20260504043011 | 64 | 180 | 10.0 | 15.0 | 0.00 | 0.00 | 0.00 | 68 | 1016.0 |
| 20260504042507 | 64 | 188 | 8.0 | 19.0 | 0.00 | 0.00 | 0.00 | 68 | 1015.9 |
| 20260504042005 | 64 | 157 | 9.0 | 19.0 | 0.00 | 0.00 | 0.00 | 67 | 1015.7 |
| 20260504041516 | 63 | 169 | 10.0 | 15.0 | 0.00 | 0.00 | 0.00 | 67 | 1015.8 |
| 20260504041005 | 63 | 194 | 7.0 | 12.0 | 0.00 | 0.00 | 0.00 | 65 | 1015.9 |
| 20260504040507 | 63 | 177 | 5.0 | 9.0 | 0.00 | 0.00 | 0.00 | 65 | 1015.9 |
| 20260504040004 | 63 | 190 | 5.0 | 9.0 | 0.00 | 0.00 | 0.00 | 64 | 1015.8 |
| 20260504035506 | 63 | 190 | 4.0 | 8.0 | 0.00 | 0.00 | 0.00 | 64 | 1015.7 |
| 20260504035004 | 63 | 176 | 5.0 | 8.0 | 0.00 | 0.00 | 0.00 | 63 | 1015.8 |
| 20260504034503 | 64 | 165 | 5.0 | 10.0 | 0.00 | 0.00 | 0.00 | 63 | 1015.9 |
| 20260504034003 | 64 | 159 | 5.0 | 8.0 | 0.00 | 0.00 | 0.00 | 62 | 1016.0 |
| 20260504033503 | 64 | 173 | 5.0 | 10.0 | 0.00 | 0.00 | 0.00 | 62 | 1015.9 |
| 20260504033003 | 64 | 166 | 5.0 | 10.0 | 0.00 | 0.00 | 0.00 | 61 | 1016.0 |
| 20260504032503 | 64 | 192 | 5.0 | 9.0 | 0.00 | 0.00 | 0.00 | 61 | 1016.0 |
| 20260504032003 | 64 | 167 | 5.0 | 11.0 | 0.00 | 0.00 | 0.00 | 61 | 1016.0 |
| 20260504031503 | 65 | 168 | 4.0 | 11.0 | 0.00 | 0.00 | 0.00 | 61 | 1016.0 |
| 20260504031004 | 65 | 146 | 4.0 | 8.0 | 0.00 | 0.00 | 0.00 | 61 | 1016.0 |
| 20260504030502 | 65 | 148 | 5.0 | 9.0 | 0.00 | 0.00 | 0.00 | 62 | 1016.2 |
| 20260504030002 | 65 | 186 | 5.0 | 10.0 | 0.00 | 0.00 | 0.00 | 61 | 1016.2 |
| 20260504025501 | 65 | 173 | 4.0 | 10.0 | 0.00 | 0.00 | 0.00 | 62 | 1016.1 |
| 20260504025001 | 65 | 158 | 5.0 | 10.0 | 0.00 | 0.00 | 0.00 | 61 | 1016.1 |
| 20260504024503 | 64 | 179 | 4.0 | 10.0 | 0.00 | 0.00 | 0.00 | 62 | 1016.0 |
| 20260504024001 | 64 | 152 | 4.0 | 8.0 | 0.00 | 0.00 | 0.00 | 62 | 1015.9 |
| 20260504023501 | 64 | 177 | 5.0 | 9.0 | 0.00 | 0.00 | 0.00 | 61 | 1015.8 |
| 20260504023001 | 64 | 166 | 4.0 | 8.0 | 0.00 | 0.00 | 0.00 | 62 | 1015.9 |
| 20260504022601 | 64 | 169 | 4.0 | 8.0 | 0.00 | 0.00 | 0.00 | 63 | 1015.9 |
| 20260504022101 | 64 | 153 | 4.0 | 8.0 | 0.00 | 0.00 | 0.00 | 62 | 1016.0 |
| 20260504021601 | 64 | 161 | 3.0 | 7.0 | 0.00 | 0.00 | 0.00 | 62 | 1016.1 |
| 20260504021104 | 64 | 168 | 4.0 | 7.0 | 0.00 | 0.00 | 0.00 | 62 | 1016.1 |
| 20260504020600 | 65 | 130 | 3.0 | 8.0 | 0.00 | 0.00 | 0.00 | 62 | 1016.1 |
| 20260504020132 | 65 | 159 | 4.0 | 8.0 | 0.00 | 0.00 | 0.00 | 62 | 1016.2 |
| 20260504015559 | 65 | 163 | 4.0 | 8.0 | 0.00 | 0.00 | 0.00 | 62 | 1016.0 |
| 20260504015200 | 65 | 148 | 3.0 | 7.0 | 0.00 | 0.00 | 0.00 | 61 | 1016.2 |
| 20260504014602 | 65 | 153 | 3.0 | 7.0 | 0.00 | 0.00 | 0.00 | 61 | 1016.1 |
| 20260504014058 | 65 | 144 | 3.0 | 5.0 | 0.00 | 0.00 | 0.00 | 61 | 1016.0 |
| 20260504013600 | 66 | 162 | 4.0 | 6.0 | 0.00 | 0.00 | 0.00 | 60 | 1015.9 |
| 20260504013126 | 66 | 150 | 3.0 | 6.0 | 0.00 | 0.00 | 0.00 | 59 | 1015.9 |
| 20260504012558 | 66 | 163 | 3.0 | 6.0 | 0.00 | 0.00 | 0.00 | 58 | 1016.0 |
| 20260504012058 | 67 | 165 | 4.0 | 7.0 | 0.00 | 0.00 | 0.00 | 57 | 1015.9 |
| 20260504011558 | 67 | 196 | 3.0 | 6.0 | 0.00 | 0.00 | 0.00 | 57 | 1015.8 |
| 20260504011059 | 67 | 184 | 4.0 | 9.0 | 0.00 | 0.00 | 0.00 | 56 | 1015.7 |
| 20260504010557 | 68 | 203 | 5.0 | 10.0 | 0.00 | 0.00 | 0.00 | 56 | 1015.6 |
| 20260504010101 | 68 | 177 | 5.0 | 10.0 | 0.00 | 0.00 | 0.00 | 55 | 1015.7 |
| 20260504005557 | 69 | 194 | 4.0 | 10.0 | 0.00 | 0.00 | 0.00 | 55 | 1015.7 |
| 20260504005057 | 69 | 200 | 5.0 | 10.0 | 0.00 | 0.00 | 0.00 | 55 | 1015.7 |
| 20260504004557 | 69 | 184 | 5.0 | 10.0 | 0.00 | 0.00 | 0.00 | 53 | 1015.7 |
| 20260504004056 | 69 | 211 | 6.0 | 14.0 | 0.00 | 0.00 | 0.00 | 53 | 1015.7 |
| 20260504003555 | 70 | 213 | 7.0 | 14.0 | 0.00 | 0.00 | 0.00 | 53 | 1015.8 |
| 20260504003055 | 70 | 187 | 5.0 | 13.0 | 0.00 | 0.00 | 0.00 | 52 | 1015.8 |
| 20260504002656 | 70 | 198 | 6.0 | 13.0 | 0.00 | 0.00 | 0.00 | 52 | 1015.8 |
| 20260504002055 | 71 | 172 | 7.0 | 13.0 | 0.00 | 0.00 | 0.00 | 52 | 1016.0 |
| 20260504001655 | 71 | 180 | 7.0 | 16.0 | 0.00 | 0.00 | 0.00 | 51 | 1015.9 |
| 20260504001054 | 72 | 184 | 8.0 | 16.0 | 0.00 | 0.00 | 0.00 | 50 | 1015.9 |
| 20260504000553 | 72 | 196 | 7.0 | 13.0 | 0.00 | 0.00 | 0.00 | 50 | 1015.9 |
| 20260504000055 | 72 | 184 | 8.0 | 17.0 | 0.00 | 0.00 | 0.00 | 52 | 1016.0 |
| 20260503235552 | 72 | 200 | 8.0 | 18.0 | 0.00 | 0.00 | 0.00 | 52 | 1016.0 |
| 20260503235052 | 72 | 202 | 7.0 | 18.0 | 0.00 | 0.00 | 0.00 | 52 | 1015.9 |